WetterOnline ( https://www.wetteronline.de )

Wetter aktuell Kreuzfelsen

Aktuelles Wetter: Waldmünchen (499m)

6-stündlich | Neueste Meldungen
Ortszeit Temperatur Wetter
Fr, 12.08. 20:00 17.9° C wolkenlos
Fr, 12.08. 14:00 23.3° C leicht bewölkt
Fr, 12.08. 8:00 15.6° C leicht bewölkt
Fr, 12.08. 2:00 12.6° C wolkenlos
Do, 11.08. 20:00 21.8° C wolkenlos
Do, 11.08. 14:00 24.5° C fast wolkenlos
Do, 11.08. 8:00 16.2° C leicht bewölkt
Do, 11.08. 2:00 18.4° C wolkenlos
Ortszeit Temperatur Wetter
Fr, 12.08. 20:00 17.9° C wolkenlos
Fr, 12.08. 19:50 17.9° C wolkenlos
Fr, 12.08. 19:40 17.8° C wolkenlos
Fr, 12.08. 19:30 17.6° C leicht bewölkt
Fr, 12.08. 19:20 17.6° C leicht bewölkt
Fr, 12.08. 19:10 17.9° C leicht bewölkt
Fr, 12.08. 19:00 18.3° C Regen
Fr, 12.08. 18:30 21.6° C wolkig
Fr, 12.08. 18:00 20.6° C leicht bewölkt
Fr, 12.08. 17:30 18.0° C wolkig
Fr, 12.08. 17:00 17.7° C leichter Regen
Ortszeit Relative Feuchte Sichtweite
Fr, 12.08. 20:00 64% 40 km
Fr, 12.08. 14:00 37% 55 km
Fr, 12.08. 8:00 61% 55 km
Fr, 12.08. 2:00 77% 50 km
Do, 11.08. 20:00 39% 60 km
Do, 11.08. 14:00 32% 60 km
Do, 11.08. 8:00 61% 55 km
Do, 11.08. 2:00 52% 60 km
Ortszeit Relative Feuchte Sichtweite
Fr, 12.08. 20:00 64% 40 km
Fr, 12.08. 19:50 64% -
Fr, 12.08. 19:40 65% -
Fr, 12.08. 19:30 70% 50 km
Fr, 12.08. 19:20 70% -
Fr, 12.08. 19:10 69% -
Fr, 12.08. 19:00 61% 11 km
Fr, 12.08. 18:30 53% 35 km
Fr, 12.08. 18:00 58% 60 km
Fr, 12.08. 17:30 73% 55 km
Fr, 12.08. 17:00 70% 4.9 km
Ortszeit Niederschlagsmenge Niederschlagsart
Fr, 12.08. 20:00 2 l/m2 in 12 Std. Regen
Fr, 12.08. 14:00 0.0 l/m2 in 6 Std. -
Fr, 12.08. 8:00 0.0 l/m2 in 12 Std. -
Fr, 12.08. 2:00 0.0 l/m2 in 6 Std. -
Do, 11.08. 20:00 0.0 l/m2 in 12 Std. -
Do, 11.08. 14:00 0.0 l/m2 in 6 Std. -
Do, 11.08. 8:00 0.0 l/m2 in 12 Std. -
Do, 11.08. 2:00 0.0 l/m2 in 6 Std. -
Ortszeit Niederschlagsmenge Niederschlagsart
Fr, 12.08. 20:00 0.3 l/m2 in 1 Std. Regen
Fr, 12.08. 19:50 keine Meldung -
Fr, 12.08. 19:40 keine Meldung -
Fr, 12.08. 19:30 0.3 l/m2 in 1 Std. Schneeregen
Fr, 12.08. 19:20 keine Meldung -
Fr, 12.08. 19:10 keine Meldung -
Fr, 12.08. 19:00 0.1 l/m2 in 1 Std. Regen
Fr, 12.08. 18:30 0.0 l/m2 in 1 Std. -
Fr, 12.08. 18:00 1.0 l/m2 in 1 Std. Regen
Fr, 12.08. 17:30 1.0 l/m2 in 1 Std. Schneeregen
Fr, 12.08. 17:00 0.7 l/m2 in 1 Std. Regen, Niederschlag
Ortszeit Stärke Spitze Richtung
km/h Bft. km/h Grad Sektor
Fr, 12.08. 20:00 7 2 58 40° NO
Fr, 12.08. 14:00 19 3 37 60° NO
Fr, 12.08. 8:00 11 2 22 10° N
Fr, 12.08. 2:00 4 1 22 20° N
Do, 11.08. 20:00 17 3 43 60° NO
Do, 11.08. 14:00 22 4 46 70° O
Do, 11.08. 8:00 14 3 29 290° W
Do, 11.08. 2:00 20 4 31 60° NO
Ortszeit Stärke Spitze Richtung
km/h Bft. km/h Grad Sektor
Fr, 12.08. 20:00 7 2 22 40° NO
Fr, 12.08. 19:50 7 2 - 40° NO
Fr, 12.08. 19:40 9 2 - 10° N
Fr, 12.08. 19:30 11 2 22 10° N
Fr, 12.08. 19:20 11 2 - 10° N
Fr, 12.08. 19:10 11 2 - 30° NO
Fr, 12.08. 19:00 28 4 43 50° NO
Fr, 12.08. 18:30 14 3 22 70° O
Fr, 12.08. 18:00 11 2 29 40° NO
Fr, 12.08. 17:30 9 2 30 40° NO
Fr, 12.08. 17:00 19 3 57 40° NO
Ortszeit Untergrenze Bedeckung Gattung
total tief tief mittel hoch
Fr, 12.08. 20:00 - 0/8 0/8 - - -
Fr, 12.08. 14:00 1800 m 2/8 1/8 - - -
Fr, 12.08. 8:00 8400 m 4/8 0/8 - - -
Fr, 12.08. 2:00 - 0/8 0/8 - - -
Do, 11.08. 20:00 - 0/8 0/8 - - -
Do, 11.08. 14:00 8400 m 1/8 0/8 - - -
Do, 11.08. 8:00 10500 m 3/8 0/8 - - -
Do, 11.08. 2:00 - 0/8 0/8 - - -
Ortszeit Bedeckungsgrad in Achtel und Wolkenuntergrenze
Fr, 12.08. 20:00 keine Wolken
Fr, 12.08. 19:50 keine Wolken
Fr, 12.08. 19:40 keine Wolken
Fr, 12.08. 19:30 1(2100m)
Fr, 12.08. 19:20 1(2100m) 2(4200m)
Fr, 12.08. 19:10 4
Fr, 12.08. 19:00 1(1020m) 6(6000m) 7(8100m)
Fr, 12.08. 18:30 3(3000m) 4(6600m) 6(7800m)
Fr, 12.08. 18:00 2(6000m) 5(7500m)
Fr, 12.08. 17:30 1(2100m) 7(5700m) 7(6600m)
Fr, 12.08. 17:00 3(1800m) 5(2700m) 6(6000m)
Ortszeit Luftdruck NN (hPa) Tendenz (hPa in 3 Std.)
Fr, 12.08. 20:00 1018 - 0,1
Fr, 12.08. 14:00 1018 - 1,4
Fr, 12.08. 8:00 1021 + 0,7
Fr, 12.08. 2:00 1021 - 0,2
Do, 11.08. 20:00 1019 - 0,6
Do, 11.08. 14:00 1020 - 1,3
Do, 11.08. 8:00 1023 + 0,1
Do, 11.08. 2:00 1023 - 0,7
Ortszeit Luftdruck NN (hPa) Tendenz (hPa in 3 Std.)
Fr, 12.08. 20:00 1018 - 0,1
Fr, 12.08. 19:50 1018 keine Meldung
Fr, 12.08. 19:40 1018 keine Meldung
Fr, 12.08. 19:30 1018 + 0,1
Fr, 12.08. 19:20 1018 keine Meldung
Fr, 12.08. 19:10 1018 keine Meldung
Fr, 12.08. 19:00 1018 0,0
Fr, 12.08. 18:30 1017 - 0,2
Fr, 12.08. 18:00 1018 - 0,3
Fr, 12.08. 17:30 1018 - 0,1
Fr, 12.08. 17:00 1018 - 0,4
Ortszeit Schneehöhe (cm)
Fr, 12.08. 20:00 0
Fr, 12.08. 14:00 0
Fr, 12.08. 8:00 0
Fr, 12.08. 2:00 0
Do, 11.08. 20:00 0
Do, 11.08. 14:00 0
Do, 11.08. 8:00 0
Do, 11.08. 2:00 0
Ortszeit Schneehöhe (cm)
Fr, 12.08. 20:00 0
Fr, 12.08. 19:50 0
Fr, 12.08. 19:40 0
Fr, 12.08. 19:30 0
Fr, 12.08. 19:20 0
Fr, 12.08. 19:10 0
Fr, 12.08. 19:00 0
Fr, 12.08. 18:30 0
Fr, 12.08. 18:00 0
Fr, 12.08. 17:30 0
Fr, 12.08. 17:00 0
Link zu dieser Seite / Seite empfehlen

Das Wetter in ...